Tracking 19792 objects as of 15-Jul-2019
HD Live streaming from Space Station
objects crossing your sky now

FENGYUN 1C DEB

Track FENGYUN 1C DEB now!
10-day predictions


NORAD ID: 31994
Int'l Code: 1999-025CPX
Perigee: 799.4 km
Apogee: 1,038.6 km
Inclination: 98.7 °
Period: 103.2 minutes
Semi major axis: 7290 km
RCS: 0.0108 m2 (small)
Launch date: May 10, 1999
Source: People's Republic of China (PRC)
Launch site: Taiyaun Space Center, China (TSC)

Note: This is SATELLITE DEBRIS
aabbcc
Your satellite tracking list
Your tracking list is empty




NASA's NSSDC Master Catalog

Two Line Element Set (TLE):
1 31994U 99025CPX 19195.08420360  .00000060  00000-0  66561-4 0  9993
2 31994  98.6860 307.4446 0164074 163.4988 197.1605 13.94792237618937
Source of the keplerian elements: AFSPC